"Time","Temp","Dewpoint","Humidity","Pressure","Direction","Speed","Gust","Precip","PrecipRate"
"00:04:58","54.3","47.9","79.1","29.99","250","0.4","2.3","0.00","0.00"
"00:09:59","54.2","47.9","79.3","29.99","250","0.6","2.3","0.00","0.00"
"00:14:58","54.1","48.1","80","29.99","251","1.5","3.5","0.00","0.00"
"00:19:57","54.1","48.1","80","29.98","251","0.7","1.2","0.00","0.00"
"00:24:56","54.1","48","79.6","29.98","251","0","1.2","0.00","0.00"
"00:29:59","54.1","47.9","79.6","29.99","251","0","0","0.00","0.00"
"00:34:58","53.8","48","80.5","29.99","251","0.8","2.3","0.00","0.00"
"00:39:58","53.6","47.6","80","29.99","251","0.2","2.3","0.00","0.00"
"00:44:57","53.4","47.7","81","29.99","251","0.2","1.2","0.00","0.00"
"00:49:56","53.1","47.7","81.8","29.98","251","0","1.2","0.00","0.00"
"00:54:59","52.9","47.9","82.7","29.98","251","0","0","0.00","0.00"
"00:59:58","52.8","47.8","83","29.98","251","0.3","1.2","0.00","0.00"
"01:04:59","52.8","47.8","83","29.98","251","0.5","2.3","0.00","0.00"
"01:09:56","52.8","47.9","83.5","29.98","251","0.9","2.3","0.00","0.00"
"01:14:57","52.8","47.9","83.2","29.98","251","0.2","1.2","0.00","0.00"
"01:19:59","52.9","47.9","83","29.98","251","0.3","1.2","0.00","0.00"
"01:24:59","52.9","47.8","82.6","29.98","251","0.1","1.2","0.00","0.00"
"01:29:58","52.9","48","83.5","29.98","251","0","0","0.00","0.00"
"01:34:57","52.8","48","83.5","29.98","251","0.3","2.3","0.00","0.00"
"01:39:57","52.7","47.7","83","29.98","251","0.6","2.3","0.00","0.00"
"01:44:56","52.5","47.5","83","29.98","251","0.4","1.2","0.00","0.00"
"01:49:58","52.2","47.2","83","29.98","251","0.5","1.2","0.00","0.00"
"01:54:56","52","47","83","29.98","251","0","1.2","0.00","0.00"
"01:59:56","51.9","46.9","83.2","29.98","251","0","0","0.00","0.00"
"02:04:53","51.8","46.9","83.4","29.97","251","0","0","0.00","0.00"
"02:09:59","51.7","47","84","29.97","251","0","0","0.00","0.00"
"02:14:56","51.7","47","84","29.97","251","0","0","0.00","0.00"
"02:19:59","51.6","46.9","84","29.97","251","0","0","0.00","0.00"
"02:24:58","51.4","46.7","84","29.97","251","0","0","0.00","0.00"
"02:29:56","51.3","46.6","84","29.97","251","0","0","0.00","0.00"
"02:34:59","51.2","46.6","84.3","29.96","251","0","0","0.00","0.00"
"02:39:59","51.2","46.3","83.5","29.96","251","1.6","3.5","0.00","0.00"
"02:44:58","51.2","46.6","84.4","29.97","251","0.7","2.3","0.00","0.00"
"02:49:56","51.1","46.6","84.6","29.97","251","0","0","0.00","0.00"
"02:54:59","50.9","46.3","84.3","29.97","251","0","0","0.00","0.00"
"02:59:59","50.5","46.2","84.9","29.97","251","0","0","0.00","0.00"
"03:04:57","50.3","46","85","29.96","251","0","0","0.00","0.00"
"03:09:59","50.1","45.8","85.1","29.96","251","0","0","0.00","0.00"
"03:14:59","49.9","45.9","86","29.96","251","0","0","0.00","0.00"
"03:19:58","49.7","45.7","86","29.96","251","0","1.2","0.00","0.00"
"03:24:57","49.6","45.9","86.7","29.96","251","0","1.2","0.00","0.00"
"03:29:59","49.6","45.7","86.3","29.96","251","0","1","0.00","0.00"
"03:34:58","49.5","45.7","86.6","29.96","251","0","1.2","0.00","0.00"
"03:39:59","49.4","45.5","86.5","29.96","251","0","0","0.00","0.00"
"03:44:59","49.2","45.2","86","29.96","251","0","0","0.00","0.00"
"03:49:57","49.1","45.1","86","29.96","242","0","0","0.00","0.00"
"03:54:59","49.1","45","85.4","29.96","144","0","1","0.00","0.00"
"03:59:57","49.1","44.8","85","29.96","142","0.6","2.3","0.00","0.00"
"04:04:58","49.3","44.8","84.3","29.96","140","0.2","2.3","0.00","0.00"
"04:09:59","49.4","44.8","84","29.96","140","0","0","0.00","0.00"
"04:14:59","49.3","44.7","84","29.96","140","0","0","0.00","0.00"
"04:19:57","49.3","44.7","84","29.96","140","0","0","0.00","0.00"
"04:24:55","49.2","44.6","84.1","29.96","141","0","0","0.00","0.00"
"04:29:58","48.9","44.6","85","29.96","141","0","0","0.00","0.00"
"04:34:56","48.7","44.6","85.7","29.96","141","0","0","0.00","0.00"
"04:39:57","48.4","44.5","86.3","29.96","141","0","0","0.00","0.00"
"04:44:59","48.2","44.5","87.2","29.96","141","0","0","0.00","0.00"
"04:49:58","48.1","44.7","88","29.96","141","0","0","0.00","0.00"
"04:54:56","48","44.8","88.8","29.96","140","1","2.3","0.00","0.00"
"04:59:58","47.9","44.8","89","29.97","140","0.7","2.3","0.00","0.00"
"05:04:59","47.8","44.7","89","29.97","140","0.6","2.3","0.00","0.00"
"05:09:56","47.6","44.5","89","29.97","140","0.7","2.3","0.00","0.00"
"05:14:57","47.5","44.4","89","29.98","140","0","0","0.00","0.00"
"05:19:59","47.5","44.4","89","29.98","140","0","0","0.00","0.00"
"05:24:58","47.4","44.3","89","29.98","140","0","0","0.00","0.00"
"05:29:57","47.2","44.1","89","29.98","140","0","0","0.00","0.00"
"05:34:59","47","43.9","89","29.98","140","0","0","0.00","0.00"
"05:39:59","46.8","43.7","89","29.98","140","0","0","0.00","0.00"
"05:44:58","46.7","43.6","89","29.98","140","0","0","0.00","0.00"
"05:49:57","46.5","43.4","89","29.98","140","0","0","0.00","0.00"
"05:54:59","46.3","43.3","89.3","29.98","140","0","0","0.00","0.00"
"05:59:58","46.1","43.3","90","29.98","140","0","0","0.00","0.00"
"06:04:59","46.1","43.6","91","29.98","140","0","0","0.00","0.00"
"06:09:57","46.1","43.6","91","29.98","140","0","0","0.00","0.00"
"06:14:57","46.1","43.3","90.1","29.99","140","0","0","0.00","0.00"
"06:19:56","46.1","43.3","90","29.99","140","0","0","0.00","0.00"
"06:24:58","46.1","43.3","90","29.99","140","0","0","0.00","0.00"
"06:29:57","45.9","43","89.7","29.99","140","0","0","0.00","0.00"
"06:34:58","45.8","43","90","29.99","140","0","0","0.00","0.00"
"06:39:57","45.6","42.8","90","29.99","140","0","0","0.00","0.00"
"06:44:56","45.5","42.8","90.4","29.99","140","0","0","0.00","0.00"
"06:49:56","45.4","42.9","91","29.99","140","0","0","0.00","0.00"
"06:54:56","45.4","42.9","91","29.99","138","0","0","0.00","0.00"
"06:59:59","45.4","42.9","91","30.00","138","0","0","0.00","0.00"
"07:04:56","45.3","42.8","91","30.00","138","0","0","0.00","0.00"
"07:09:58","45.3","42.8","91","30.00","138","0","0","0.00","0.00"
"07:14:56","45.2","42.7","91","30.00","138","0","0","0.00","0.00"
"07:19:58","45.2","43","91.9","30.00","138","0","0","0.00","0.00"
"07:24:57","45.3","43.1","92","30.00","138","0","0","0.00","0.00"
"07:29:58","45.5","43.3","92","30.01","138","0","0","0.00","0.00"
"07:34:56","45.7","43.5","92","30.01","138","0","0","0.00","0.00"
"07:39:56","46.1","43.9","92","30.01","138","0","0","0.00","0.00"
"07:44:59","46.6","44.6","92.6","30.01","138","0","0","0.00","0.00"
"07:49:56","47.2","45.2","92.5","30.00","138","0","0","0.00","0.00"
"07:54:58","47.7","45.5","92","30.00","138","0","0","0.00","0.00"
"07:59:59","48.4","46.1","91.8","30.01","138","0","0","0.00","0.00"
"08:04:56","49.1","46.5","90.6","30.01","138","0","0","0.00","0.00"
"08:09:57","49.8","46.9","89.6","30.01","138","0","0","0.00","0.00"
"08:14:59","50.6","47.5","89.1","30.01","138","0","0","0.00","0.00"
"08:19:56","51.3","47.9","88.2","30.01","138","0","0","0.00","0.00"
"08:24:57","52","48.4","87.5","30.01","138","0","0","0.00","0.00"
"08:29:58","52.8","49","87","30.01","138","0","0","0.00","0.00"
"08:34:56","53.8","49.6","85.6","30.01","138","0","0","0.00","0.00"
"08:39:59","55.4","49.3","80.1","30.01","138","0","0","0.00","0.00"
"08:44:57","56.6","50.2","79","30.01","138","0","0","0.00","0.00"
"08:49:59","57.4","49.6","75.3","30.01","138","0","0","0.00","0.00"
"08:54:57","58","48.8","71.5","30.01","138","0","0","0.00","0.00"
"08:55:56","58.4","49","71","30.01","138","0","0","0.00","0.00"
"09:04:58","58.9","47.6","66","30.01","138","0","0","0.00","0.00"
"09:09:59","59.4","47.9","65.6","30.01","138","0","0","0.00","0.00"
"09:19:59","61","48.5","63.4","30.00","138","0","0","0.00","0.00"
"09:24:57","61.7","48.7","62.4","30.00","139","0","0","0.00","0.00"
"09:29:57","62.2","48.7","61.3","30.00","139","0","0","0.00","0.00"
"09:34:59","62.9","49.2","60.9","30.00","139","0.2","2.3","0.00","0.00"
"09:39:57","63.5","49.5","60.3","30.00","139","0.6","2.3","0.00","0.00"
"09:44:58","64","50","60.3","30.00","139","0.4","2.3","0.00","0.00"
"09:49:59","65.1","49.3","56.5","29.99","139","0.1","1.2","0.00","0.00"
"09:59:56","66.8","49.4","53.7","29.99","139","0.4","2.3","0.00","0.00"
"10:04:56","67.3","50.1","54.1","29.99","138","0.5","2.3","0.00","0.00"
"10:09:56","67.9","50.6","54","29.99","351","1.4","4","0.00","0.00"
"10:14:59","68.3","51","54","29.99","10","1.3","3.5","0.00","0.00"
"10:19:59","68.6","50.7","52.8","29.99","20","1.6","4","0.00","0.00"
"10:24:56","68.9","51","52.9","29.99","84","2.4","4","0.00","0.00"
"10:29:57","69.1","52","54.6","30.00","26","1.3","4","0.00","0.00"
"10:34:58","69.4","51.9","53.9","30.00","356","1.6","4","0.00","0.00"
"10:36:21","69.6","52.5","54.5","30.00","90","1.8","3.5","0.00","0.00"
"10:44:57","69.8","51.7","52.6","30.00","91","1.7","3.5","0.00","0.00"
"10:49:58","70.2","52.5","53.4","29.99","92","0.7","3.5","0.00","0.00"
"10:54:58","70.9","52.9","52.9","29.99","107","0.7","4","0.00","0.00"
"10:59:59","71.7","52.5","50.9","29.99","297","1.6","3.5","0.00","0.00"
"11:04:56","72.1","51.9","49.1","29.99","323","1.1","3.5","0.00","0.00"
"11:09:56","72.4","51.9","48.6","29.99","334","2.9","9.2","0.00","0.00"
"11:14:59","72.4","51","47.1","29.99","321","2.4","5","0.00","0.00"
"11:19:56","72.6","52","48.4","29.99","335","0.6","4.6","0.00","0.00"
"11:24:57","73.4","53.6","49.9","29.99","273","2","4","0.00","0.00"
"11:29:58","74.3","53.5","48.4","29.99","228","3.2","6","0.00","0.00"
"11:34:59","74.7","53.3","47.3","29.99","266","1.6","5","0.00","0.00"
"11:39:57","75.3","53.3","46.5","29.99","278","3","6","0.00","0.00"
"11:44:58","75.6","53.1","45.6","29.99","270","3.8","10","0.00","0.00"
"11:49:59","75.6","54","47.1","29.98","293","2.3","6","0.00","0.00"
"11:54:56","75.9","52.8","44.7","29.98","287","2.9","6","0.00","0.00"
"11:59:57","76.1","52.9","44.5","29.98","262","2","5","0.00","0.00"
"12:04:57","76.4","53.9","45.7","29.98","223","2.2","5","0.00","0.00"
"12:09:58","76.6","52.9","43.8","29.98","266","3.2","7","0.00","0.00"
"12:14:56","76.7","54.7","46.6","29.98","224","2.8","6","0.00","0.00"
"12:19:57","76.9","53.5","44.3","29.97","314","3.1","6","0.00","0.00"
"12:24:59","76.9","54","45.1","29.97","300","2","8","0.00","0.00"
"12:29:59","77.4","54.2","44.7","29.97","327","1.8","4","0.00","0.00"
"12:34:57","78","55.5","46","29.96","254","2.7","7","0.00","0.00"
"12:39:59","78.5","55.5","45.1","29.96","345","2.5","9.2","0.00","0.00"
"12:44:59","79.2","55.2","43.7","29.96","344","4.1","9.2","0.00","0.00"
"12:49:59","79.6","54.6","42.2","29.96","5","4.3","11","0.00","0.00"
"12:54:59","79.7","55.3","43.1","29.96","315","3.2","9.2","0.00","0.00"
"12:59:58","80.1","55.2","42.4","29.96","262","4.5","12","0.00","0.00"
"13:04:57","79.8","54.6","41.8","29.96","260","3.9","10","0.00","0.00"
"13:09:57","80","54.6","41.7","29.96","327","4.5","15","0.00","0.00"
"13:14:59","80.4","55","41.6","29.96","325","4.3","11.5","0.00","0.00"
"13:19:59","80.3","53.9","40.2","29.95","288","2.6","8","0.00","0.00"
"13:24:59","79.6","53.3","40.3","29.95","332","3.5","9","0.00","0.00"
"13:29:56","79.5","54.6","42.3","29.95","26","1.8","6.9","0.00","0.00"
"13:34:56","79.7","55.2","43","29.95","67","2.7","7","0.00","0.00"
"13:39:57","80","54.6","41.7","29.95","277","2.6","9","0.00","0.00"
"13:44:57","80.4","54.4","40.8","29.95","347","3.9","12","0.00","0.00"
"13:49:57","80.6","53.2","38.9","29.94","318","4.5","9.2","0.00","0.00"
"13:54:57","80.3","52.8","38.5","29.94","343","4.4","10.4","0.00","0.00"
"13:59:57","80.5","54","40.2","29.94","326","2.8","11","0.00","0.00"
"14:04:56","80.9","54","39.7","29.94","301","2.9","11.5","0.00","0.00"
"14:09:59","81.4","54.3","39.3","29.94","328","3.8","12","0.00","0.00"
"14:14:57","81.5","54.5","39.4","29.94","350","3","9.2","0.00","0.00"
"14:19:57","81.6","54.4","39.3","29.94","319","3.4","7","0.00","0.00"
"14:24:56","81.7","54.8","39.6","29.94","330","5.1","13","0.00","0.00"
"14:29:56","81.8","55.3","40.2","29.94","10","3.2","9.2","0.00","0.00"
"14:34:56","81.8","54.6","39.3","29.93","73","2.4","6","0.00","0.00"
"14:39:58","81.4","55.3","40.8","29.93","2","4.6","13","0.00","0.00"
"14:44:57","81.4","54","38.9","29.93","357","3","11.5","0.00","0.00"
"14:49:57","81.5","53.5","38.2","29.93","29","3.5","11","0.00","0.00"
"14:54:57","82","53.8","37.9","29.93","339","3.8","11.5","0.00","0.00"
"14:59:56","82.4","53.3","36.7","29.93","319","3.3","10.4","0.00","0.00"
"15:04:59","82.7","53.6","36.8","29.92","242","3","5","0.00","0.00"
"15:09:59","82.7","53.1","36.1","29.92","287","2.7","5","0.00","0.00"
"15:14:58","82.6","53.7","37.2","29.92","232","2.8","7","0.00","0.00"
"15:29:56","82.8","52.7","35.5","29.91","236","3.5","8.1","0.00","0.00"
"15:34:57","82.6","53","36","29.91","277","3.8","6.9","0.00","0.00"
"15:39:59","83","53.6","36.5","29.91","294","2.5","6","0.00","0.00"
"15:44:59","83.2","52.9","35.4","29.91","267","3.6","7","0.00","0.00"
"15:49:55","83.1","52.2","34.6","29.90","264","3.1","6.9","0.00","0.00"
"15:54:59","83","51.9","34.3","29.90","294","3.3","7","0.00","0.00"
"15:59:57","82.9","52.3","34.9","29.90","328","2.5","5","0.00","0.00"
"16:04:56","82.9","53","35.8","29.90","325","2.3","4","0.00","0.00"
"16:09:57","82.3","51.4","34.3","29.90","340","2.7","5","0.00","0.00"
"16:14:59","81.7","51.8","35.6","29.90","323","0.7","3.5","0.00","0.00"
"16:15:59","81.4","52.6","37","29.90","323","0.3","1.2","0.00","0.00"
"16:24:57","80.8","52.4","37.5","29.90","312","1.3","3.5","0.00","0.00"
"16:29:57","80.5","51.8","36.9","29.90","307","1.1","3.5","0.00","0.00"
"16:34:59","80.3","52.3","37.8","29.90","343","1.4","3.5","0.00","0.00"
"16:39:57","80.3","51.6","37","29.90","336","1.3","3.5","0.00","0.00"
"16:44:58","80.4","52.4","37.8","29.90","326","2","5","0.00","0.00"
"16:49:57","80.3","52.6","38.3","29.90","323","1","3","0.00","0.00"
"16:54:58","80.1","52.1","37.8","29.90","331","1.8","5","0.00","0.00"
"16:59:58","80","52.1","38.1","29.90","319","1.5","4","0.00","0.00"
"17:04:58","79.8","52","38.2","29.90","315","1.2","4","0.00","0.00"
"17:09:59","79.7","52.3","38.6","29.90","319","1.3","3.5","0.00","0.00"
"17:14:57","79.6","52.4","38.8","29.90","319","0.8","2.3","0.00","0.00"
"17:19:58","79.5","52.5","39.1","29.90","323","0.4","2.3","0.00","0.00"
"17:24:59","79.4","53.1","40.2","29.90","323","0","1.2","0.00","0.00"
"17:29:56","79.1","52.4","39.5","29.90","323","0.1","1.2","0.00","0.00"
"17:34:56","78.9","53.1","40.9","29.90","51","1.2","5","0.00","0.00"
"17:39:59","78.4","53.5","42.2","29.90","76","1.5","4","0.00","0.00"
"17:44:56","77.9","53.9","43.4","29.91","75","1","4","0.00","0.00"
"17:49:58","77.6","53.7","43.7","29.91","56","0.8","3.5","0.00","0.00"
"17:54:56","77.3","53.7","44","29.91","57","0.4","2.3","0.00","0.00"
"17:59:58","77.1","54","44.9","29.91","58","0.5","3.5","0.00","0.00"
"18:04:56","76.9","53.8","45","29.91","63","0","1.2","0.00","0.00"
"18:09:58","76.7","53.8","45.1","29.91","63","0","0","0.00","0.00"
"18:14:58","76.6","53.8","45.2","29.92","63","0","0","0.00","0.00"
"18:19:59","76.5","53.7","45.2","29.92","63","0","0","0.00","0.00"
"18:24:57","76.5","53.6","45.1","29.92","63","0","0","0.00","0.00"
"18:29:58","76.4","53.5","44.9","29.92","62","0","0","0.00","0.00"
"18:34:59","76.5","53.8","45.3","29.92","62","0","0","0.00","0.00"
"18:39:58","76.5","53.7","45.2","29.92","63","0","0","0.00","0.00"
"18:44:59","76.4","53.5","45","29.92","63","0","0","0.00","0.00"
"18:49:59","76.4","53.7","45.3","29.92","63","0","0","0.00","0.00"
"18:54:57","76.3","53.5","45.2","29.92","63","0","0","0.00","0.00"
"18:59:58","76.2","53.5","45.4","29.92","63","0","0","0.00","0.00"
"19:04:59","76.1","54.2","46.6","29.91","63","0","0","0.00","0.00"
"19:09:57","75.8","55.5","49.4","29.91","63","0","0","0.00","0.00"
"19:14:56","75.3","55.7","50.6","29.91","63","0","0","0.00","0.00"
"19:19:58","74.8","56","52.1","29.91","63","0","0","0.00","0.00"
"19:24:57","74.2","56.1","53.2","29.91","63","0","0","0.00","0.00"
"19:29:59","73.7","56","54","29.91","63","0","0","0.00","0.00"
"19:34:58","73.3","55.8","54.4","29.91","63","0","0","0.00","0.00"
"19:39:57","72.9","55.9","55","29.91","63","0","0","0.00","0.00"
"19:44:57","72.5","56.3","56.9","29.91","63","0","0","0.00","0.00"
"19:49:56","71.9","56.5","58.3","29.90","63","0","0","0.00","0.00"
"19:54:59","71.4","57","60.5","29.90","63","0","0","0.00","0.00"
"19:59:57","70.6","56.9","62","29.91","63","0","0","0.00","0.00"
"20:04:57","70.3","55.8","60","29.91","63","0","0","0.00","0.00"
"20:09:57","70","55.5","60","29.91","63","0","0","0.00","0.00"
"20:14:58","69.7","55.5","60.7","29.91","63","0","0","0.00","0.00"
"20:19:56","69.5","55.4","60.9","29.91","63","0","0","0.00","0.00"
"20:29:57","68.8","54.9","61","29.92","63","0","0","0.00","0.00"
"20:34:57","68.6","54.6","60.8","29.92","63","0","0","0.00","0.00"
"20:39:57","68.5","54.4","60.8","29.92","63","0","0","0.00","0.00"
"20:44:59","68.3","54.1","60.5","29.93","64","0","0","0.00","0.00"
"20:49:57","68","55.1","63.4","29.93","84","0","0","0.00","0.00"
"20:54:56","67.4","54.8","64.1","29.93","84","0","0","0.00","0.00"
"20:59:59","67.1","53.2","61.1","29.94","86","0","0","0.00","0.00"
"21:04:59","67.2","54.1","62.9","29.94","86","0","0","0.00","0.00"
"21:09:56","67.2","53.3","60.9","29.94","89","0.8","3.5","0.00","0.00"
"21:14:59","67.7","52.8","59","29.94","90","0.6","3.5","0.00","0.00"
"21:19:57","68","52.8","58.3","29.94","90","0","2","0.00","0.00"
"21:24:58","67.9","52.9","58.7","29.94","86","0.7","3.5","0.00","0.00"
"21:29:56","67.9","52.3","57.4","29.94","94","1.8","4","0.00","0.00"
"21:34:59","68.1","52.3","57","29.94","90","1.5","3.5","0.00","0.00"
"21:39:58","68.2","52","56.2","29.94","89","0.5","2","0.00","0.00"
"21:44:59","68.1","51.9","56.2","29.95","89","0.5","2.3","0.00","0.00"
"21:49:57","67.9","52.7","58.1","29.95","76","1.4","4","0.00","0.00"
"21:54:58","67.6","52.6","58.6","29.95","72","1.5","3.5","0.00","0.00"
"21:59:56","67.3","52.4","58.9","29.96","69","1","3.5","0.00","0.00"
"22:04:57","67","52.3","59.2","29.96","66","1.3","3.5","0.00","0.00"
"22:14:57","66.6","52","59.2","29.96","69","0.2","1.2","0.00","0.00"
"22:19:58","66.4","51.3","58.3","29.96","69","0.3","2.3","0.00","0.00"
"22:24:59","66.3","51.1","58","29.96","69","0.4","2.3","0.00","0.00"
"22:29:56","66.3","51.1","58","29.97","69","0","0","0.00","0.00"
"22:34:58","66.3","51.1","58","29.97","69","0","0","0.00","0.00"
"22:39:57","66.3","51.3","58.6","29.97","69","0","0","0.00","0.00"
"22:44:58","66","51.6","59.8","29.97","69","0.3","2.3","0.00","0.00"
"22:49:58","65.8","51.2","59.3","29.97","25","0.2","2.3","0.00","0.00"
"22:54:55","65.8","50.9","58.7","29.97","59","0.9","3.5","0.00","0.00"
"22:59:56","66","50.8","58.1","29.97","69","1.9","4","0.00","0.00"
"23:04:59","66.4","50.7","57","29.97","79","2.7","5","0.00","0.00"
"23:09:56","66.8","50.6","56.2","29.97","83","3.2","6","0.00","0.00"
"23:14:59","67","50.5","55.5","29.97","97","2.4","4","0.00","0.00"
"23:19:56","67.1","50.4","55.1","29.97","113","2","6","0.00","0.00"
"23:24:56","67.2","50.3","54.6","29.97","102","3.6","6","0.00","0.00"
"23:29:57","67.3","50","53.8","29.97","96","3.9","7","0.00","0.00"
"23:34:58","67.3","50","53.8","29.97","90","2.7","5.8","0.00","0.00"
"23:39:56","67.1","49.9","54.1","29.97","97","3.6","7","0.00","0.00"
"23:44:57","66.9","49.6","53.8","29.97","111","2.7","5.8","0.00","0.00"
"23:49:58","66.8","49.5","53.8","29.97","113","1.5","5","0.00","0.00"
"23:54:59","66.7","49.5","54","29.97","109","2.4","5","0.00","0.00"
"23:59:56","66.5","49.4","54.1","29.97","99","1.9","4.6","0.00","0.00"
